Regional Weather Roundup
Issued by NWS Grand Forks, ND

Home | Current Version | Previous Version | Graphics & Text | Print | Product List | Glossary On
Versions: 1 2 3 4 5 6 7 8 9 10 11 12 13 14 15 16 17 18 19 20 21 22 23 24 25 26 27 28 29 30 31 32 33 34 35 36 37 38 39 40 41 42 43 44 45 46 47 48 49 50
000
ASUS43 KFGF 181931
RWRFGF
PRAIRIE TO PINES  WEATHER ROUNDUP
NATIONAL WEATHER SERVICE EASTERN NORTH DAKOTA/GRAND FORKS ND
200 PM CDT WED OCT 18 2017

 **SATELLITE DATA USED TO AUGMENT SKY COVER AT AUTOMATED STATIONS**
 *****  WEATHER ACROSS EASTERN NORTH DAKOTA  *****

CITY           SKY/WX    TMP DP  RH WIND       PRES   REMARKS
GRAND FORKS    FAIR      62  15  16 W28G44    29.78F
GRAND FRKS AFB FAIR      60  14  16 W28G36    29.79F
DEVILS LAKE    FAIR      55  15  20 W30G41    29.80F
FARGO          FAIR      63  13  14 W28G36    29.85F
WAHPETON ARPT  NOT AVBL
$$

 ***** WEATHER ACROSS CENTRAL AND WESTERN NORTH DAKOTA  *****

CITY           SKY/WX    TMP DP  RH WIND       PRES   REMARKS
BISMARCK       FAIR      58  21  24 W20G28    29.97F
MINOT          FAIR      57  19  22 W28G40    29.88S
JAMESTOWN      FAIR      57  15  19 NW25G33   29.91R
MINOT AFB      FAIR      55  19  24 W28G38    29.85S
GARRISON         N/A     55  19  24 W25G35    29.93F
WILLISTON      FAIR      54  23  30 W18G29    29.96F
DICKINSON      FAIR      55  22  27 W15G23    29.99F
HETTINGER      FAIR      57  20  23 W13G21    30.04F
$$

 *****  OTHER AIRPORT OBSERVATIONS IN OUR AREA  *****

CITY           SKY/WX    TMP DP  RH WIND       PRES   REMARKS
WALHALLA       FAIR     N/A N/A N/A W23G38    29.70S
GRAFTON AIRPOR FAIR      59  19  21 W25G35    29.77S
VALLEY CITY AR FAIR      59  14  17 NW28G38   29.91S
CANDO          FAIR      57  12  17 W35G41    29.80S
CAVALIER APRT  FAIR      59  10  14 W29G44    29.70F
GWINNER        CLEAR     61  19  20 W12G29    29.93S
SHEYENNE NWR     N/A     61  20  20 NW16      29.95S
ROLLA          FAIR      54  10  17 W33G51    29.75S
 ***** THE ABOVE OBSERVATIONS ARE NON NWS ARE NOT QUALITY
       CONTROLLED AND MAY MIS-REPORT RAIN FOR SNOW...
$$

  *****  WEATHER ACROSS NORTHERN MINNESOTA  *****

CITY           SKY/WX    TMP DP  RH WIND       PRES   REMARKS
FLAG ISLAND    FAIR      55  18  22 W29G38    29.57S
WARROAD        FAIR      57  23  26 W30G36    29.65S
ROSEAU         FAIR      61  12  15 W24G35    29.66S
HALLOCK        FAIR      61  -2   8 W30G38    29.71R
THF RVR FALLS  FAIR      59  16  18 W23G41    29.77S
BAUDETTE       FAIR      59  20  22 W20G41    29.64S
WASKISH        FAIR      55  36  47 W17G23    29.71S
CROOKSTON      FAIR      61  18  18 W30       29.80R
STEPHEN NDAWN    N/A     59  16  18 W23         N/A
GREENBUSH NDAW   N/A     59  19  21 W25         N/A
$$
  *****  WEATHER ACROSS CENTRAL AND WEST MINNESOTA  *****

CITY           SKY/WX    TMP DP  RH WIND       PRES   REMARKS
FOSSTON        FAIR      59  12  15 W26G38    29.80S
BEMIDJI        FAIR      59  20  22 W29       29.77R
PARK RAPIDS    FAIR      62  23  22 W20G30    29.80S
ELBOW LAKE     FAIR      59  26  28 NW12      29.90R
WADENA         FAIR      59  25  27 NW15G22   29.83F
DETROIT LAKES  FAIR      59  21  23 W20G26    29.84F
MOORHEAD       FAIR      63  12  14 W24G32    29.86S
FERGUS FALLS   FAIR      59  27  29 NW21      29.89S
MORRIS MN      FAIR      63  28  27 NW20      29.90R
STAPLES        FAIR      61  21  21 W15G24    29.82F
$$
  *****  WEATHER ELSEWHERE ACROSS MINNESOTA  *****

CITY           SKY/WX    TMP DP  RH WIND       PRES   REMARKS
DULUTH         FAIR      66  40  38 W20G29    29.70S
INTRNTL FALLS  FAIR      60  19  20 W21G33    29.63S
ELY            FAIR      64  25  22 W17G31    29.62S
CLOQUET        FAIR      68  34  28 W12G21    29.71F
WHEATON        FAIR      59  19  21 NW10      29.94R
BRAINERD       FAIR      63  26  24 W20G29    29.80S
HIBBING        FAIR      65  29  25 W15G26    29.68F
ALEXANDRIA     FAIR      63  23  21 NW15G26   29.88S
SAINT CLOUD    FAIR      69  35  28 NW18G25   29.82S
MINNEAPOLIS    PTSUNNY   67  46  47 W10       29.85R
$$

  *****  WEATHER ACROSS SOUTH DAKOTA  *****

CITY           SKY/WX    TMP DP  RH WIND       PRES   REMARKS
SIOUX FALLS    FAIR      73  40  30 NE13      29.93S
BROOKINGS      FAIR      67  30  25 N20G28    29.94R
WATERTOWN      FAIR      62  28  27 N15G23    29.95R
HURON          FAIR      65  27  23 N16G24    29.98R
SISSETON         N/A     58  25  28 NW14      29.93R
ABERDEEN       FAIR      57  27  31 NW10      30.00R
MITCHELL       FAIR      70  33  25 N20       29.99R
PIERRE         FAIR      64  26  23 NW12G18   30.03F
MOBRIDGE       FAIR      61  22  22 NW13      30.00F
RAPID CITY     FAIR      61  23  23 W7        30.08F
$$

  *****  SOME WEATHER IN NEARBY STATES *****

CITY           SKY/WX    TMP DP  RH WIND       PRES   REMARKS
GLASGOW MT     FAIR      56  21  25 W15       29.95F
GREAT FALLS MT FAIR      60  30  32 SW24G36   29.93F
CHEYENNE WY    FAIR      70   7   8 NW7       30.18F
SCOTTSBLUFF NE FAIR      72  24  16 VRB5      30.11F
OMAHA NE       FAIR      73  48  41 S10       29.92S
DES MOINES IA  PTSUNNY   73  49  42 S15       29.92F
DAVENPORT IA   FAIR      70  44  39 S16G25    30.04F
CHICAGO IL     FAIR      69  44  40 S21G28    30.07F
EAU CLAIRE WI  FAIR      72  47  40 SW15G25   29.79F
LA CROSSE WI   FAIR      72  49  44 S20G26    29.85F
$$

  *****  SOME NATIONAL WEATHER *****

CITY           SKY/WX    TMP DP  RH WIND       PRES   REMARKS
LA GUARDIA NY  FAIR      73  44  35 CALM      30.26F
RALEIGH NC     FAIR      66  32  28 NE7       30.35F
ATLANTA GA     FAIR      69  42  37 E8        30.28F
NEW ORLEANS LA FAIR      77  64  64 E10G20    30.15F
OKLAHOMA CITY  FAIR      78  44  29 S16       30.05F
ALBUQUERQUE NM CLOUDY    70  11  10 CALM      30.23F
SALT LAKE CITY FAIR      65  28  24 CALM      30.20F
LOS ANGELES CA FAIR      77  60  55 W10       29.96S
BOISE ID       FAIR      68  31  25 SE8       30.10F
SEATTLE WA     LGT RAIN  50  48  93 SE17      29.76F
$$

*** WEATHER ACROSS MANITOBA...SASKATCHEWAN AND ONTARIO ***
                ***ONTARIO***

CITY           SKY/WX    TMP DP  RH WIND       PRES   REMARKS
GERALDTON      PTSUNNY   66  43  42 S22G32    29.47S
THUNDER BAY    PTSUNNY   66  45  45 SW18G25   29.52F
SIOUX LOOKOUT  MOSUNNY   59  25  27 W22G38    29.43R
TORONTO        SUNNY     72  45  37 S14G25    30.14F
BIG TROUT LK   CLOUDY    57  37  47 W16G24    29.08R
PICKLE LAKE    PTSUNNY   63  28  27 W28G36    29.22F
DRYDEN         SUNNY     57  23  26 W33G46    29.46S
KENORA         MOSUNNY   55  25  30 SW29G37   29.51S
$$
                *** MANITOBA***

CITY           SKY/WX    TMP DP  RH WIND       PRES   REMARKS
BRANDON        SUNNY     55  12  18 W35G47    29.64R
DAUPHIN        SUNNY     54  19  26 W43G58    29.46S
ISLAND LAKE    LGT RAIN N/A N/A N/A SW23        N/A
PILOT MOUND      N/A     54  14  20 W21G36      N/A
THE PAS        PTSUNNY   41  32  70 W31G44    29.19R
THOMPSON       LGT SNOW  34  32  93 NW13      28.85R VSB 1   WCI  25
WINNIPEG       SUNNY     57  16  19 W35G44    29.55F
LYNN LAKE      LGT SNOW  32  32 100 N12G17    29.04R WCI  23
CHURCHILL      SNOW      32  30  93 E38G49    29.14S VSB 3/8 WCI  16
GILLAM         LGT RAIN  37  36  93 E8        28.77S
$$
                ***SASKATCHEWAN***

CITY           SKY/WX    TMP DP  RH WIND       PRES   REMARKS
ESTEVAN        MOSUNNY   54  14  20 W29G39    29.85S
KINDERSLEY     MOSUNNY   48  16  27 NW18G26   29.80F
LLOYDMINSTER   PTSUNNY   45  21  39 NW16G24   29.73S
PRINCE ALBERT  PTSUNNY   45  28  53 NW32G44   29.58R
REGINA         MOSUNNY   50  16  25 W31G41    29.80R
YORKTON        SUNNY     52  16  24 W38G53    29.55R
N. BATTLEFORD  SUNNY     48  16  27 W30G36    29.73S
LA RONGE       LGT RAIN  37  34  87 W24G41    29.40R
SASKATOON      MOSUNNY   50  18  27 W35G45    29.71
SWIFT CURRENT  SUNNY     46  21  36 W14G23    29.86F
$$
NOTE: THESE ARE AUTOMATED STATIONS WITH LIMITED QUALITY CONTROL
      "FAIR" INDICATES FEW OR NO CLOUDS BELOW 12,000 FEET WITH NO
      SIGNIFICANT WEATHER AND/OR OBSTRUCTIONS TO VISIBILITY.
      SKY/WX - SKY CONDITION AND SIGNIFICANT WEATHER.
      TMP - AIR TEMPERATURE.    DP   - DEWPOINT TEMPERATURE.
      RH  - RELATIVE HUMIDITY.  PRES - PRESSURE.
      HX  - HEAT INDEX.         WCI  - WIND CHILL INDEX.
$




USA.gov is the U.S. government's official web portal to all federal, state and local government web resources and services.